FW4179 Weather Reports


time (UTC)temp
C
wind
direction
speed
KPH
gust
KPH
rain 1hr
cm
rain 24hr
cm
rain mn
cm
humidity
%
barometer
mb
20260904031555 27 150 3.2 4.8 0.00 0.00 0.00 77 1017.9
20260904030100 28 150 1.6 4.8 0.00 0.00 0.00 76 1018.0
20260904024604 28 150 1.6 6.4 0.00 0.00 0.00 76 1018.1
20260904023101 27 0 0.0 0.0 0.00 0.00 0.00 79 1018.1
20260904021604 27 0 0.0 0.0 0.00 0.00 0.00 80 1018.0
20260904020054 28 0 0.0 0.0 0.00 0.00 0.00 82 1017.7
20260904014605 28 0 0.0 0.0 0.00 0.00 0.00 80 1017.5
20260904013055 28 0 0.0 0.0 0.00 0.00 0.00 78 1017.4
20260904011558 29 0 0.0 0.0 0.00 0.00 0.00 76 1017.3
20260904010055 30 0 0.0 0.0 0.00 0.00 0.00 73 1017.0
20260904004606 30 0 0.0 0.0 0.00 0.00 0.00 71 1016.8
20260904003057 30 0 0.0 1.6 0.00 0.00 0.00 69 1016.8
20260904001558 31 0 0.0 0.0 0.00 0.00 0.00 67 1016.6
20260904000109 32 0 0.0 3.2 0.00 0.00 0.00 67 1016.5
20260903234551 32 0 0.0 0.0 0.00 0.00 0.00 60 1016.5
20260903233103 33 0 0.0 0.0 0.00 0.00 0.00 58 1016.3
20260903231558 33 0 0.0 3.2 0.00 0.00 0.00 58 1016.2
20260903230100 33 0 0.0 1.6 0.00 0.00 0.00 58 1016.2
20260903224613 32 109 3.2 11.3 0.00 0.00 0.00 61 1016.4
20260903223108 32 0 0.0 0.0 0.00 0.00 0.00 63 1016.2
20260903221603 31 0 1.6 8.0 0.00 0.00 0.00 64 1016.2
20260903220101 31 0 6.4 14.5 0.00 0.00 0.00 61 1016.3
20260903214609 33 350 8.0 22.5 0.00 0.00 0.00 53 1016.4
20260903213100 36 117 3.2 9.7 0.00 0.00 0.00 48 1016.2
20260903211605 37 235 1.6 8.0 0.00 0.00 0.00 47 1016.3
20260903210127 37 277 0.0 6.4 0.00 0.00 0.00 47 1016.5
20260903204552 36 186 1.6 14.5 0.00 0.00 0.00 49 1016.5
20260903203107 36 148 4.8 11.3 0.00 0.00 0.00 47 1016.7
20260903201601 36 131 1.6 9.7 0.00 0.00 0.00 49 1016.7
20260903200058 36 106 1.6 6.4 0.00 0.00 0.00 50 1016.9
20260903194556 36 285 3.2 9.7 0.00 0.00 0.00 51 1017.1
20260903193103 35 104 3.2 12.9 0.00 0.00 0.00 51 1017.2
20260903191556 35 131 3.2 11.3 0.00 0.00 0.00 49 1017.4
20260903190100 36 0 1.6 9.7 0.00 0.00 0.00 50 1017.6
20260903184555 36 0 0.0 6.4 0.00 0.00 0.00 49 1017.7
20260903183053 35 0 0.0 3.2 0.00 0.00 0.00 53 1017.9
20260903181558 35 0 0.0 9.7 0.00 0.00 0.00 52 1018.2
20260903180059 35 192 1.6 6.4 0.00 0.00 0.00 53 1018.2
20260903174555 35 279 1.6 6.4 0.00 0.00 0.00 54 1018.5
20260903173059 34 0 1.6 9.7 0.00 0.00 0.00 54 1018.7
20260903171607 34 0 0.0 3.2 0.00 0.00 0.00 55 1019.1
20260903170058 35 0 0.0 6.4 0.00 0.00 0.00 54 1019.3
20260903164620 35 57 0.0 6.4 0.00 0.00 0.00 56 1019.3
20260903163101 33 0 0.0 6.4 0.00 0.00 0.00 62 1019.5
20260903161557 33 0 3.2 9.7 0.00 0.00 0.00 62 1019.5
20260903160129 32 0 1.6 9.7 0.00 0.00 0.00 65 1019.6
20260903154609 32 140 1.6 8.0 0.00 0.00 0.00 67 1019.7
20260903153057 32 0 0.0 3.2 0.00 0.00 0.00 69 1019.7
20260903151559 31 0 0.0 8.0 0.00 0.00 0.00 70 1019.6
20260903150053 31 0 0.0 3.2 0.00 0.00 0.00 73 1019.7
20260903144604 30 0 0.0 4.8 0.00 0.00 0.00 73 1019.6
20260903143109 29 0 0.0 6.4 0.00 0.00 0.00 77 1019.5
20260903141605 28 0 0.0 0.0 0.00 0.00 0.00 79 1019.4
20260903140056 27 0 0.0 0.0 0.00 0.00 0.00 82 1019.5
20260903134600 26 0 0.0 0.0 0.00 0.00 0.00 87 1019.5
20260903133100 25 0 0.0 0.0 0.00 0.00 0.00 88 1019.6
20260903131601 25 0 0.0 0.0 0.00 0.00 0.00 89 1019.6
20260903130100 24 170 1.6 8.0 0.00 0.00 0.00 90 1019.6
20260903124605 23 0 0.0 3.2 0.00 0.00 0.00 92 1019.6
20260903123055 22 0 0.0 0.0 0.00 0.00 0.00 95 1019.6
20260903121555 22 0 0.0 0.0 0.00 0.00 0.00 96 1019.6
20260903120106 22 0 0.0 0.0 0.00 0.00 0.00 96 1019.3
20260903114602 22 0 0.0 0.0 0.00 0.00 0.00 96 1019.2
20260903113058 22 0 0.0 0.0 0.00 0.00 0.00 95 1019.2
20260903111558 22 0 0.0 0.0 0.00 0.00 0.00 95 1019.1
20260903110056 22 0 0.0 0.0 0.00 0.00 0.00 95 1019.0
20260903104605 22 0 0.0 0.0 0.00 0.00 0.00 95 1018.7
20260903103103 22 0 0.0 0.0 0.00 0.00 0.00 94 1018.6
20260903101608 22 0 0.0 0.0 0.00 0.00 0.00 94 1018.5
20260903100056 22 0 0.0 0.0 0.00 0.00 0.00 95 1018.6
20260903094605 22 0 0.0 0.0 0.00 0.00 0.00 95 1018.6
20260903093110 22 0 0.0 0.0 0.00 0.00 0.00 94 1018.6
20260903091557 23 0 0.0 0.0 0.00 0.00 0.00 94 1018.8
20260903090059 23 0 0.0 1.6 0.00 0.00 0.00 94 1018.6
20260903084601 23 0 0.0 0.0 0.00 0.00 0.00 94 1018.6
20260903083053 23 0 0.0 0.0 0.00 0.00 0.00 94 1018.6
20260903081557 23 0 0.0 0.0 0.00 0.00 0.00 94 1018.6
20260903080049 23 0 0.0 0.0 0.00 0.00 0.00 94 1018.6
20260903074556 23 0 0.0 0.0 0.00 0.00 0.00 93 1018.5
20260903073056 23 0 0.0 1.6 0.00 0.00 0.00 95 1018.5
20260903071553 23 0 0.0 0.0 0.00 0.00 0.00 94 1018.5
20260903070109 23 0 0.0 0.0 0.00 0.00 0.00 94 1018.4
20260903064557 23 0 0.0 0.0 0.00 0.00 0.00 93 1018.4
20260903063124 23 0 0.0 0.0 0.00 0.00 0.00 93 1018.5
20260903061554 24 0 0.0 0.0 0.00 0.00 0.00 93 1018.5
20260903060117 24 0 0.0 0.0 0.00 0.00 0.00 92 1018.4
20260903054600 24 0 0.0 0.0 0.00 0.00 0.00 92 1018.5
20260903053056 25 0 0.0 0.0 0.00 0.00 0.00 90 1018.4
20260903051559 25 0 0.0 0.0 0.00 0.00 0.00 89 1018.5
20260903050129 25 0 0.0 0.0 0.00 0.00 0.00 87 1018.5
20260903044559 26 0 0.0 0.0 0.00 0.00 0.00 86 1018.6
20260903043058 26 0 0.0 0.0 0.00 0.00 0.00 86 1018.4
20260903041559 26 0 0.0 0.0 0.00 0.00 0.00 86 1018.6
20260903040101 26 0 0.0 0.0 0.00 0.00 0.00 85 1018.6
20260903034600 26 0 0.0 0.0 0.00 0.00 0.00 83 1018.6
20260903033057 27 0 0.0 3.2 0.00 0.00 0.00 82 1018.6